Theta_e
317 317 317 316 317 317 317 317 316 315 314 316 316 318 319 319 322 324 323 324 324 325 324 324 323 324 324 322 322 320 319 318 318 319 319 319 320 319 316 320 325 327 329 328 326 327 327 327 326 324 323 323 323 323 323 322 322 321 321 321 321 320 319 318 318 318 317 316 316 316 316 315 315 314 315 314 314 314 314 314 314 314 314 314 314
317 316 314 314 315 316 315 315 315 315 315 318 317 317 319 320 321 322 322 323 323 323 322 324 323 324 321 321 322 320 318 318 318 318 318 319 319 320 314 317 321 324 327 332 326 327 325 324 324 324 323 322 323 322 322 321 321 321 320 320 319 319 318 318 318 317 316 316 316 316 315 315 314 314 315 314 313 313 313 313 313 313 313 314 314
318 317 315 315 313 313 314 314 314 314 314 317 316 317 319 321 321 322 322 322 323 321 321 323 323 323 321 320 322 320 318 317 318 317 317 319 318 318 319 314 316 321 325 328 326 326 323 323 324 322 322 322 322 322 322 322 321 321 320 319 319 318 318 318 317 317 316 316 315 315 314 314 314 313 314 314 313 313 313 313 313 312 312 313 313
319 318 317 316 316 316 316 315 317 317 316 319 319 319 320 320 318 319 320 321 321 320 320 322 322 323 322 320 321 321 318 317 317 317 317 317 317 317 317 318 313 314 319 324 327 325 323 324 323 322 321 321 322 322 321 321 321 321 320 319 319 318 317 317 316 316 316 316 315 314 314 313 314 313 313 313 312 313 312 312 313 312 312 313 313
319 319 318 320 320 318 318 318 319 320 320 320 320 319 319 319 319 319 319 319 320 322 321 320 321 322 321 321 321 320 318 318 317 316 315 315 315 315 316 316 316 312 314 318 327 325 324 323 322 321 321 321 321 322 322 321 321 320 319 319 319 317 317 317 316 315 315 315 315 314 313 313 313 313 312 312 312 312 312 312 312 312 311 312 312
321 320 320 320 320 319 319 319 320 321 321 319 320 320 321 320 322 320 319 321 322 322 322 322 321 318 320 321 321 320 318 317 316 315 313 313 312 314 314 314 314 315 316 314 319 323 323 322 321 320 320 321 321 321 321 321 320 320 320 319 318 317 317 316 316 315 314 314 314 313 313 313 312 312 312 312 311 312 311 311 311 311 311 312 312
322 322 320 320 320 319 319 320 320 320 320 320 321 320 320 321 321 321 321 320 321 320 321 322 321 321 321 320 322 321 318 317 316 314 311 310 309 312 313 313 313 313 314 317 313 317 322 322 320 319 319 320 320 321 320 320 320 319 319 318 317 316 315 316 315 314 314 313 313 313 312 312 312 311 312 311 311 311 311 311 311 311 311 311 311
321 321 321 320 320 320 320 320 320 320 320 320 319 320 320 320 320 321 322 321 320 321 319 320 319 320 319 320 321 319 318 318 317 314 310 308 308 310 311 311 312 312 310 314 315 313 314 316 316 317 318 318 319 319 320 320 319 319 318 317 317 316 314 314 314 314 313 313 312 312 312 312 311 311 311 311 311 310 311 310 310 310 311 311 310
322 321 321 321 320 320 321 320 320 320 320 320 319 320 320 319 320 319 322 323 321 321 319 318 320 318 318 320 320 318 318 318 316 314 310 308 308 308 309 308 309 306 311 311 312 312 310 311 312 313 313 314 316 318 319 319 319 318 317 317 317 316 314 313 313 312 312 312 311 311 311 311 311 311 310 310 310 310 310 310 310 310 310 310 310
322 321 321 322 321 320 321 320 320 320 320 320 319 320 320 321 320 319 319 320 320 320 320 318 314 315 318 318 318 316 314 315 315 311 310 308 306 307 308 307 309 309 308 309 309 307 307 307 307 308 309 313 313 315 317 318 318 318 317 317 316 315 314 313 311 311 311 311 311 310 311 310 310 310 310 310 310 309 310 309 310 310 309 309 310
322 321 320 321 320 320 320 320 320 320 320 319 319 319 319 319 320 319 315 318 321 320 321 317 313 316 317 316 316 314 310 309 310 310 309 307 305 306 305 306 306 306 307 307 305 305 303 303 304 306 308 309 311 312 313 315 316 317 316 316 316 315 314 313 311 310 311 310 310 310 310 310 310 310 310 309 309 309 309 309 309 309 309 309 309
321 321 320 320 319 319 320 320 320 320 319 318 318 318 318 317 317 319 317 313 312 315 317 316 315 316 315 315 314 312 309 308 308 308 307 306 306 305 305 304 306 305 304 304 304 303 302 301 300 301 303 305 306 309 311 311 312 314 315 316 315 315 314 313 311 310 310 309 310 309 309 309 310 309 309 309 309 309 309 309 308 309 308 308 308
320 321 320 318 320 321 320 320 320 319 319 319 320 319 319 319 319 318 319 317 316 314 313 316 318 316 315 315 314 311 309 306 305 304 304 303 304 305 304 302 303 304 303 303 303 302 299 298 297 297 298 300 302 303 306 308 310 312 313 314 315 314 314 313 311 309 309 309 308 309 309 309 309 309 309 309 309 308 308 308 309 309 309 309 308
320 321 321 321 321 320 320 320 319 319 319 320 320 316 318 318 318 316 314 318 319 316 314 317 314 316 315 314 315 313 308 306 304 303 303 302 302 304 303 302 302 303 300 302 301 299 298 296 296 297 297 298 299 300 303 305 308 310 311 312 313 314 313 313 311 308 308 308 308 308 307 308 308 308 308 309 308 308 308 308 308 308 308 308 309
321 320 321 321 321 321 320 321 320 319 318 318 318 318 318 318 317 318 314 313 316 314 314 317 319 312 313 313 310 310 310 307 306 304 303 302 301 302 302 302 301 301 300 301 300 298 297 296 296 296 296 297 298 299 301 302 305 306 309 310 311 312 313 312 310 308 307 307 308 307 307 307 307 308 308 308 307 307 307 307 308 307 308 308 308
321 321 320 321 321 321 321 321 320 320 319 319 317 317 317 317 317 318 319 315 313 314 313 315 317 314 311 311 309 308 307 310 310 308 302 301 301 301 300 301 301 300 299 300 299 298 296 295 295 295 296 296 297 298 300 302 302 302 303 305 307 310 311 311 310 309 307 307 308 307 306 307 307 307 307 307 307 307 307 307 308 307 307 307 307
322 322 320 321 321 321 321 321 321 320 320 319 319 319 319 319 318 317 318 318 316 315 313 314 316 320 318 308 306 305 306 309 307 310 300 300 299 300 300 300 300 300 300 299 299 298 296 295 294 294 295 295 296 297 299 300 302 302 303 303 305 307 309 310 309 308 307 307 307 307 306 306 306 307 306 307 307 306 306 306 307 307 307 307 306
322 322 321 320 321 321 321 321 321 320 319 319 320 320 319 318 318 319 318 320 320 316 315 313 316 317 318 320 316 312 309 307 307 307 300 299 298 297 298 300 300 299 299 298 298 298 296 295 294 294 294 295 295 296 298 299 300 301 302 304 305 306 306 307 308 308 307 306 306 306 306 306 306 306 305 306 305 306 305 306 306 306 306 306 306
322 322 322 321 320 321 321 321 321 321 320 320 319 319 320 320 320 319 319 319 319 318 316 316 312 313 315 314 312 310 315 309 307 304 304 302 299 296 296 297 298 299 298 298 298 298 296 294 293 293 294 294 294 296 297 298 299 300 302 303 305 304 304 305 305 305 306 305 305 305 306 305 305 305 305 305 305 304 305 305 306 306 306 306 306
321 322 322 322 320 321 321 321 321 321 320 319 320 321 321 320 319 320 320 320 319 318 319 318 314 314 314 313 313 309 309 312 313 310 310 308 305 297 296 294 294 296 298 297 297 297 297 294 293 293 293 293 294 294 296 297 298 300 302 303 304 304 304 304 303 303 302 304 303 304 303 304 304 305 305 304 304 304 304 305 305 305 305 305 305
321 321 322 322 320 321 321 321 321 321 319 320 321 321 321 320 318 318 318 318 319 320 320 319 317 318 313 312 313 311 308 305 304 305 308 306 306 302 299 292 293 294 295 297 296 297 297 295 293 293 292 293 293 293 294 296 297 298 300 303 303 304 304 304 303 302 301 300 300 301 301 301 303 304 304 304 304 304 304 304 304 304 305 305 304
320 321 321 322 322 321 321 321 321 321 318 321 321 320 320 320 320 319 319 319 319 319 319 320 319 320 318 316 311 310 308 305 304 304 302 303 305 299 298 295 293 296 295 294 295 295 297 295 293 292 292 292 292 292 293 295 296 298 299 300 302 303 305 305 303 301 300 300 299 299 299 299 301 303 303 303 304 303 303 303 303 303 304 304 304
321 320 321 321 321 321 321 321 321 320 319 320 320 321 321 321 321 320 319 319 318 318 317 319 320 319 318 318 315 314 310 308 307 305 306 302 299 302 303 299 302 304 295 296 295 295 295 294 292 292 292 291 291 291 292 294 294 295 296 298 299 301 303 304 303 301 301 299 299 299 298 298 299 300 302 302 303 303 303 303 302 303 303 303 303
321 320 320 320 320 320 320 321 320 321 320 321 321 321 321 321 321 320 319 319 320 318 318 317 318 318 318 318 317 318 317 316 314 311 309 310 310 309 309 303 296 297 294 292 293 294 294 294 293 292 291 291 291 291 292 293 294 293 296 297 298 299 301 302 303 301 300 299 299 298 298 298 298 299 300 300 301 301 302 302 302 302 302 303 302
319 319 320 320 319 319 320 320 320 320 321 321 321 321 321 321 320 320 320 319 318 318 318 318 318 317 317 319 319 318 318 318 318 317 315 315 313 309 308 298 300 299 294 291 291 292 293 294 293 292 291 291 291 291 291 292 294 294 294 296 296 298 299 301 303 302 300 299 299 298 297 297 298 299 299 299 299 299 300 301 301 301 301 302 301
319 319 320 320 319 320 320 320 320 321 320 321 321 321 321 320 320 319 319 320 320 319 319 319 319 319 320 318 317 318 318 319 319 318 314 311 308 307 307 294 297 299 289 290 291 291 292 292 293 292 290 290 290 290 290 291 292 293 293 294 295 296 297 299 301 300 300 299 298 298 297 297 297 298 298 298 298 298 298 299 300 300 300 301 301
320 321 320 320 319 319 320 320 320 320 320 320 320 320 320 320 320 320 320 320 319 319 319 319 318 318 318 318 317 316 317 318 318 316 316 314 313 312 309 304 295 291 290 290 290 290 293 292 293 290 289 289 290 290 290 290 291 292 292 293 295 295 296 297 298 299 299 298 298 297 296 296 297 298 298 297 297 297 297 298 298 298 299 299 299
321 321 320 319 319 319 318 319 319 320 319 319 319 319 319 319 319 319 318 319 319 318 318 319 318 318 318 319 317 316 317 317 316 316 315 316 316 316 311 309 307 301 292 292 289 289 292 292 292 290 289 289 290 290 290 289 290 292 291 292 293 293 294 295 296 298 298 297 296 296 295 295 297 298 297 296 296 295 296 297 296 297 297 297 298
322 321 320 319 320 319 319 318 319 319 319 319 319 319 319 318 318 318 318 318 317 318 318 318 318 318 318 318 317 317 317 317 317 316 316 315 315 314 312 310 309 307 300 293 293 291 294 292 292 291 288 289 289 290 289 290 290 291 291 290 291 291 292 293 295 296 296 296 295 295 295 295 296 296 296 295 295 295 295 295 295 295 295 295 296
322 321 321 319 320 316 320 319 319 319 319 319 319 319 319 318 318 318 319 319 317 317 317 318 318 318 317 317 317 316 317 316 316 316 315 314 312 310 309 310 311 309 308 304 301 294 294 291 292 292 288 289 289 289 290 289 289 290 289 289 289 290 290 292 294 295 294 295 296 296 294 294 295 295 294 294 294 294 295 295 294 295 295 294 295
321 320 320 320 320 319 320 320 320 319 320 320 320 319 319 318 318 318 319 319 318 317 317 317 318 318 317 316 317 317 317 315 315 314 312 310 310 309 308 308 308 309 310 307 300 300 296 292 290 293 289 289 288 289 288 289 289 289 287 287 288 288 289 291 291 293 293 294 295 293 293 294 294 294 293 293 293 294 294 293 293 294 293 293 293
321 321 321 321 320 320 319 320 320 320 320 320 320 320 319 319 319 318 318 318 317 317 317 317 317 317 316 315 315 315 315 314 313 312 310 308 308 307 306 305 306 307 307 306 302 304 293 295 293 290 289 287 288 287 287 286 287 288 286 286 287 287 288 289 289 290 292 293 293 291 291 292 292 292 292 292 292 293 292 292 292 292 292 292 292
321 320 320 321 321 320 320 319 320 320 320 320 320 320 319 319 319 318 318 317 317 316 315 315 316 316 315 314 315 314 314 313 312 310 307 306 304 305 304 303 303 305 305 303 302 303 293 287 290 288 287 287 285 287 285 285 286 287 285 286 286 287 287 286 287 288 289 291 291 290 291 291 291 291 291 290 290 291 290 291 291 291 290 291 291
321 321 321 321 321 320 320 320 320 320 320 321 320 320 318 318 318 319 318 316 315 316 316 315 314 314 314 313 313 314 312 311 309 307 306 304 302 301 300 301 303 304 304 304 303 303 303 286 286 287 286 287 285 286 286 285 285 286 285 285 285 286 285 285 285 286 288 289 290 290 290 290 290 290 289 289 289 289 289 290 289 290 290 290 290
320 321 321 321 320 320 320 320 320 319 320 320 320 319 318 318 317 317 318 317 316 315 314 314 314 314 312 311 312 312 308 307 307 306 303 301 299 300 300 299 300 303 303 304 303 300 300 295 287 286 285 285 287 286 286 286 286 285 284 284 284 284 284 285 285 285 285 288 290 290 289 289 289 289 289 289 288 288 288 288 288 289 289 289 289
318 319 321 320 319 319 319 318 318 318 318 318 318 318 319 317 317 318 316 316 315 315 315 314 314 313 311 310 310 309 304 304 303 299 297 298 297 298 299 297 297 298 297 296 300 302 301 299 285 286 286 285 285 285 285 285 284 284 284 284 284 284 284 284 284 284 284 287 289 289 289 288 288 288 288 288 288 288 288 288 287 288 288 288 288
319 318 317 318 319 318 318 318 317 317 317 317 318 317 318 318 317 317 316 315 314 314 314 314 307 311 309 308 309 305 301 302 299 297 296 295 295 294 295 295 294 295 294 292 293 294 292 292 286 285 285 285 285 284 284 283 283 283 283 283 283 283 284 284 284 284 284 285 287 288 288 287 287 287 288 288 287 287 287 287 287 287 287 287 287
317 317 317 316 317 317 317 317 317 317 317 317 317 317 316 315 315 315 315 314 313 313 313 313 313 311 310 310 309 304 300 301 300 297 295 295 294 294 295 295 295 293 292 290 290 289 289 289 286 284 283 283 283 283 283 284 283 282 282 283 283 283 282 282 283 282 282 283 284 286 287 286 286 286 286 286 287 286 286 286 286 286 286 286 287
316 315 315 315 314 316 316 316 316 316 317 316 316 316 315 314 313 312 312 312 311 311 311 311 310 309 309 308 305 300 299 300 300 297 296 295 294 295 295 295 293 292 290 288 288 287 288 288 286 285 284 284 284 282 282 284 284 284 283 282 281 283 282 281 281 282 282 281 283 284 284 284 283 283 284 285 285 286 286 285 285 285 285 285 286
312 313 313 314 314 313 315 315 316 316 316 315 314 313 312 312 312 311 311 310 310 309 307 307 306 305 304 303 302 301 301 300 299 297 295 294 294 294 293 292 291 290 289 288 286 286 286 286 285 285 284 283 282 283 282 282 282 282 283 283 282 283 282 281 281 281 281 281 280 281 283 283 283 284 284 284 285 285 284 284 284 283 283 284 285
308 310 311 312 312 311 312 313 313 312 313 312 312 311 311 310 311 310 310 309 308 307 304 300 298 299 298 298 297 297 297 293 293 294 294 295 297 296 295 293 291 290 290 288 287 285 285 285 284 284 283 282 282 281 281 281 281 283 283 282 282 284 283 282 281 282 282 280 280 280 280 280 280 280 280 281 281 282 282 282 282 282 282 284 285
303 304 305 307 308 309 308 307 307 308 309 311 302 302 303 309 309 309 308 306 305 304 300 297 294 293 294 293 293 291 290 290 290 292 293 292 293 296 296 292 290 290 289 287 286 285 285 285 285 284 283 282 282 282 282 282 283 283 282 281 281 283 281 281 282 281 281 280 280 279 279 279 279 279 279 278 279 279 280 280 280 280 281 283 284
299 299 299 301 301 303 305 306 304 305 306 306 299 301 301 302 306 307 305 304 302 299 298 297 295 292 290 291 291 289 289 288 290 290 292 291 291 292 292 291 291 291 288 287 286 286 285 286 286 285 284 283 283 283 283 283 282 282 282 282 282 282 281 281 283 283 279 280 279 278 279 279 278 278 278 278 278 278 279 279 280 281 282 283 284
295 294 296 298 299 299 301 301 302 302 303 298 300 300 300 300 300 304 304 302 299 297 296 296 295 292 291 290 289 290 291 292 292 291 291 290 290 290 290 290 290 290 291 290 288 285 285 286 285 284 284 284 284 283 282 282 282 282 282 281 281 282 281 281 283 285 281 278 278 277 279 276 276 277 277 277 277 277 277 278 280 282 283 284 285
293 294 297 297 297 297 298 299 299 298 298 297 298 299 299 299 299 300 302 300 296 295 295 295 294 292 290 289 289 289 289 287 288 290 290 290 289 289 289 288 289 290 291 291 290 289 288 286 286 285 284 285 284 283 284 283 283 281 281 281 281 281 282 281 283 282 277 277 277 276 278 278 274 276 277 278 277 277 276 278 281 282 283 284 285
293 294 294 295 295 295 296 297 298 296 296 294 296 297 297 297 298 299 299 297 295 294 294 293 292 291 290 290 290 288 288 289 289 289 289 289 289 289 289 288 288 287 288 289 288 286 286 287 286 286 285 285 285 284 284 285 282 282 281 281 281 281 280 281 280 279 278 276 277 277 276 278 274 275 276 277 277 275 275 277 280 282 283 284 285
293 294 293 293 292 293 293 293 294 294 295 293 295 296 296 297 297 297 294 293 292 291 291 291 291 291 291 291 291 290 288 288 288 288 288 288 288 288 287 287 286 286 286 287 288 287 285 285 286 285 284 284 284 284 285 286 284 284 284 282 282 281 280 278 277 277 277 277 275 277 277 278 271 274 276 276 276 275 275 277 280 282 283 284 284
291 291 291 291 292 291 291 292 292 293 291 292 294 294 295 296 296 293 292 291 291 290 290 290 290 290 290 290 290 289 288 288 287 288 288 287 286 286 285 285 284 284 284 284 286 286 286 285 284 284 284 283 285 284 285 285 285 282 282 280 280 279 278 279 279 277 276 277 276 276 276 277 273 274 276 275 274 275 276 275 277 281 282 283 284
290 290 290 289 290 291 290 290 292 292 290 291 293 293 294 295 293 291 290 290 289 289 289 289 289 289 290 290 290 290 288 287 287 289 289 287 286 285 285 284 283 283 284 283 285 288 287 287 286 286 287 288 288 288 288 287 284 282 281 280 279 279 279 278 279 277 277 275 275 276 275 275 276 274 275 276 274 275 276 276 274 276 280 282 283
289 289 289 289 289 290 290 290 291 292 290 289 291 293 294 294 292 291 290 290 289 288 288 288 289 289 288 286 288 289 288 287 288 289 289 287 286 285 285 284 282 282 282 281 283 286 288 288 288 288 288 289 289 289 289 288 286 283 282 282 280 279 279 280 280 280 276 273 275 276 275 275 273 273 274 275 273 275 275 274 273 272 277 281 283
290 289 289 290 288 288 288 289 288 291 290 288 290 292 293 293 291 290 290 290 288 287 287 287 286 286 286 286 286 287 287 287 289 290 289 287 286 285 285 284 283 281 281 280 282 281 281 282 282 283 285 286 286 286 287 287 286 284 283 282 280 280 280 280 279 278 277 278 274 276 275 275 275 275 274 276 278 276 270 270 271 272 274 274 276
Wind_Speed
5 5 4 5 4 4 4 3 3 2 2 2 2 1 1 1 1 1 0 1 1 2 1 1 0 1 2 3 3 3 2 1 1 1 1 1 2 3 7 9 8 11 12 4 7 9 9 9 10 9 8 8 9 9 10 10 11 11 10 11 11 11 11 11 11 12 12 12 12 13 13 13 14 15 15 16 16 16 17 18 18 18 19 19 20
4 4 5 5 5 4 4 4 3 3 3 2 2 1 2 1 1 1 1 2 2 1 1 1 0 1 2 2 3 3 3 2 1 1 1 1 1 2 6 8 9 11 10 10 7 8 7 7 8 8 7 8 8 8 9 9 10 11 10 10 10 10 11 10 10 11 12 12 12 12 13 13 14 14 15 15 15 16 16 17 18 18 18 19 19
4 4 4 4 4 4 4 3 3 4 3 2 2 2 1 2 2 2 2 1 2 1 1 2 1 1 2 1 2 3 3 3 2 2 1 1 1 2 3 6 9 8 9 10 4 7 7 8 8 7 7 7 7 8 8 9 9 10 10 9 10 10 10 10 10 11 11 11 11 12 12 12 13 14 14 14 14 15 16 17 17 17 18 18 19
6 5 5 4 4 4 4 4 3 3 4 3 3 2 2 2 2 2 2 1 1 1 1 1 1 1 2 2 2 3 3 2 1 1 2 2 1 1 1 3 6 8 10 10 2 6 7 8 7 6 6 6 7 7 7 8 9 9 9 9 9 9 9 9 10 10 10 10 11 11 11 12 13 13 13 14 14 15 15 16 16 17 18 18 18
6 7 6 5 4 3 3 4 3 3 3 3 3 2 2 2 2 2 1 1 2 2 1 1 1 1 2 2 2 2 2 2 2 1 1 2 1 1 1 1 3 5 8 10 4 9 8 7 8 7 6 6 6 6 7 7 8 8 9 9 9 9 8 9 9 9 9 10 10 11 11 12 12 12 12 13 14 15 15 16 16 17 18 18 18
7 6 6 5 5 4 4 4 3 4 3 4 3 3 3 3 3 2 3 2 3 2 1 2 1 1 2 2 2 2 3 4 3 2 0 0 1 1 1 1 2 2 3 7 9 11 12 11 9 8 6 6 6 6 7 7 7 8 8 9 9 8 8 8 9 9 9 9 10 10 10 10 11 11 12 13 14 15 15 15 16 17 17 18 18
7 7 6 6 6 4 5 5 4 3 3 3 3 3 3 4 3 4 2 2 2 1 2 2 2 2 2 3 3 3 3 3 2 1 1 1 1 2 1 1 2 2 2 3 7 8 8 11 9 8 6 6 6 7 7 7 7 7 8 8 8 8 8 8 8 8 8 9 9 9 9 10 11 11 12 12 13 14 15 15 16 17 17 17 18
9 8 7 7 6 5 6 4 5 4 4 4 4 4 4 4 4 4 3 3 2 3 1 2 2 2 1 2 3 3 3 3 4 3 2 1 1 2 2 1 1 2 3 3 4 8 13 11 10 8 7 6 5 6 6 7 7 7 6 7 8 8 8 7 7 7 7 8 8 8 9 10 10 11 11 12 13 13 14 15 16 17 17 18 17
10 9 8 8 7 6 5 5 5 5 4 4 4 4 4 4 3 3 4 3 3 3 2 2 2 1 1 1 1 3 3 4 4 3 4 4 4 3 2 2 2 4 3 3 3 4 9 10 11 9 7 5 5 5 5 6 6 6 6 6 7 8 7 7 6 6 7 7 7 8 8 9 10 10 11 12 12 13 14 15 16 16 17 17 18
10 9 9 6 6 6 5 6 5 5 5 4 5 4 4 4 4 3 3 3 3 3 4 2 1 0 1 2 2 2 1 2 2 4 3 2 1 2 3 2 2 2 3 3 2 3 4 7 8 8 8 5 4 4 5 4 5 6 6 6 6 7 7 7 6 5 6 6 7 7 8 9 9 10 10 11 12 13 13 14 15 16 17 17 18
10 9 8 9 8 8 6 6 5 5 5 5 4 4 4 4 5 3 2 3 3 3 2 1 2 1 2 3 3 3 1 2 2 2 2 2 3 2 2 3 2 2 3 3 2 3 3 3 3 3 3 5 3 4 4 4 3 4 5 6 6 6 6 7 6 5 5 6 6 7 7 8 8 10 10 11 11 12 13 14 15 16 17 17 18
10 10 10 9 8 7 7 6 6 5 5 7 7 7 7 6 6 5 4 3 2 2 2 3 1 1 2 2 1 3 3 3 4 4 3 4 4 3 3 2 2 3 2 3 3 3 3 2 2 2 2 2 4 3 4 4 3 3 4 5 6 6 6 6 6 5 5 5 6 6 7 7 8 9 10 10 11 12 13 14 15 15 16 17 18
8 9 10 9 7 6 7 6 6 6 6 7 5 5 5 5 4 4 5 4 4 3 3 3 3 1 1 1 2 1 3 4 4 3 4 3 2 3 3 3 3 3 3 2 3 3 3 2 2 2 2 1 1 3 2 2 0 4 4 4 5 6 6 6 5 5 4 4 4 5 6 7 8 9 9 10 11 12 13 13 15 16 17 17 18
8 9 8 9 9 9 10 7 8 8 7 5 6 6 6 5 4 4 4 6 5 7 5 5 2 5 4 2 2 1 1 2 4 5 4 3 3 4 4 4 4 3 3 3 3 3 3 3 2 2 2 2 1 2 1 1 1 4 4 3 3 4 5 6 5 4 3 3 4 4 5 6 7 8 9 10 11 12 13 13 14 15 16 17 18
10 9 9 9 8 8 9 7 8 6 8 9 7 7 6 7 7 6 5 4 4 4 8 8 5 2 1 1 3 2 2 2 3 3 4 4 4 4 4 4 6 5 4 4 3 3 3 3 3 3 3 3 2 2 2 2 1 1 3 4 4 4 5 6 5 4 3 2 3 3 4 5 7 8 8 10 10 11 12 14 14 15 16 16 17
10 10 9 9 9 9 7 8 10 8 7 8 10 10 8 8 8 8 6 7 6 7 8 9 4 6 2 6 1 1 6 4 4 2 3 4 5 5 4 4 5 5 4 5 5 4 4 4 4 4 4 4 3 3 2 2 3 1 1 1 3 4 5 6 5 4 3 2 2 2 3 5 6 8 9 9 10 11 12 12 13 14 15 16 17
9 10 9 10 9 9 9 8 8 10 9 9 8 8 8 7 8 9 10 9 8 6 6 8 8 8 5 4 1 2 6 2 1 3 3 4 5 5 5 6 5 5 6 5 5 5 5 6 5 5 5 4 4 3 3 2 3 3 3 2 3 5 5 5 5 4 3 2 1 2 3 5 6 8 8 9 10 10 11 12 12 14 15 15 16
9 10 10 9 10 10 9 8 8 9 11 10 6 6 9 11 10 9 9 10 7 6 6 7 9 8 6 7 4 6 3 3 2 4 1 2 0 4 5 7 6 7 6 5 7 6 6 6 6 5 5 5 5 4 4 4 3 3 3 4 6 6 5 5 4 4 3 2 2 3 4 5 6 7 7 8 9 10 11 12 13 13 14 15 16
10 10 10 10 9 9 10 10 9 8 8 9 11 11 10 10 7 10 9 7 7 9 10 8 5 7 8 7 4 3 2 5 6 2 3 2 4 4 5 4 5 7 7 7 7 6 6 6 6 6 6 5 5 5 4 4 5 5 7 7 7 6 5 5 5 4 3 2 2 3 4 4 5 6 7 8 8 9 10 11 12 13 14 15 16
10 10 10 10 10 10 10 9 9 9 8 11 10 9 8 8 10 10 7 7 9 10 10 8 9 7 9 9 7 4 4 7 5 7 7 8 4 1 2 3 3 5 6 7 8 9 8 7 6 7 6 6 5 5 5 5 5 5 6 9 7 7 7 7 6 5 3 2 1 2 2 3 4 6 6 7 8 8 9 10 11 12 13 14 15
10 10 10 12 11 12 12 9 10 9 9 8 8 8 11 11 10 11 12 11 9 10 8 8 11 8 7 9 8 8 5 3 1 2 7 7 8 6 5 1 2 6 7 7 6 6 7 8 8 7 7 6 6 6 6 6 5 5 4 9 9 8 8 8 8 7 6 4 2 1 1 2 4 5 6 7 8 8 9 10 10 12 13 14 14
10 11 11 12 12 12 12 13 11 10 10 9 9 11 10 11 12 11 11 11 9 10 11 9 8 9 9 7 9 7 5 3 2 3 4 4 7 5 6 9 7 7 6 8 9 7 7 6 6 6 6 6 6 7 6 6 5 4 5 8 8 9 9 9 9 8 7 5 4 3 1 2 4 5 5 6 7 8 8 9 10 11 12 13 14
9 10 12 12 12 12 11 10 10 11 11 12 12 11 11 12 12 12 13 13 11 12 11 11 10 10 11 9 9 10 10 10 9 8 9 6 4 8 8 8 11 8 7 8 6 6 6 5 6 7 6 6 6 6 6 6 6 6 7 9 9 9 9 9 9 8 7 6 5 3 1 1 3 4 5 6 6 7 8 8 9 10 11 13 14
10 9 10 11 11 10 12 11 11 11 12 9 10 10 10 10 10 11 12 12 11 11 12 12 13 10 12 11 10 10 9 8 7 9 9 10 10 9 8 4 2 6 3 2 1 5 7 7 8 8 8 6 6 4 5 5 6 9 8 10 10 10 9 9 10 9 8 7 5 3 2 2 3 4 5 5 6 6 7 8 9 10 11 13 14
11 11 11 13 11 10 11 12 11 11 12 11 12 12 11 11 12 13 12 13 12 14 12 14 14 13 12 10 9 10 9 8 8 9 9 9 9 10 8 5 8 3 2 3 5 4 5 7 8 8 7 6 5 5 5 5 6 9 8 7 10 10 9 9 10 10 9 7 6 5 3 3 3 4 4 5 5 6 7 8 9 10 11 12 13
10 13 11 12 11 12 11 12 12 11 12 12 12 12 12 11 12 13 13 12 11 14 14 14 12 13 9 9 10 10 8 8 11 9 10 9 7 10 9 3 4 5 1 4 2 3 5 8 8 7 6 7 7 7 6 5 5 10 10 7 9 10 10 9 9 9 8 7 6 5 4 3 4 5 5 5 6 6 7 8 9 10 12 13 14
12 11 9 12 13 11 11 12 12 11 11 11 10 11 11 11 11 13 12 11 13 12 12 13 12 12 12 11 11 11 11 9 8 9 9 10 11 11 9 7 4 4 5 3 2 8 7 4 8 8 8 8 8 7 7 6 6 11 11 7 6 10 10 10 9 9 8 8 6 5 4 4 5 6 5 5 6 6 7 8 9 10 11 13 14
9 9 10 11 12 10 11 10 9 10 11 12 11 10 11 11 11 10 12 8 10 13 11 11 13 13 13 12 10 11 10 10 10 11 10 10 10 9 9 10 11 9 5 5 5 8 9 7 4 8 8 9 7 6 6 7 7 11 11 6 6 6 10 9 9 9 8 7 6 6 5 6 7 6 5 5 5 6 7 8 8 9 11 12 13
9 9 10 11 11 11 11 11 12 8 10 11 11 11 10 10 11 11 11 10 10 12 11 11 11 12 11 12 11 10 10 10 10 10 10 9 10 9 9 11 10 11 6 6 9 8 8 11 7 7 9 8 8 7 8 8 8 10 7 6 6 5 8 10 10 9 9 8 8 7 7 7 6 5 4 5 5 6 7 7 8 9 10 11 12
9 9 10 11 10 11 11 11 11 11 11 10 11 11 11 10 11 11 10 10 11 10 11 12 12 11 12 11 11 10 9 9 10 11 10 10 9 9 9 10 10 11 10 10 8 9 3 5 8 5 9 10 8 8 7 6 7 10 5 6 6 5 8 10 10 10 9 9 9 7 7 7 7 5 4 5 5 6 7 7 7 8 9 10 11
9 9 10 10 10 11 11 11 11 11 11 11 11 10 11 10 11 10 10 10 10 11 11 11 11 10 11 12 11 10 10 10 9 9 8 8 9 9 9 9 9 11 12 9 7 6 6 6 8 5 5 8 7 6 6 5 8 8 6 5 5 5 8 7 10 10 10 10 9 8 7 7 6 5 5 5 5 5 6 6 7 7 8 9 10
9 10 10 11 11 11 11 11 11 10 11 11 11 11 11 11 10 10 10 11 11 11 11 10 10 10 10 10 10 10 10 9 9 9 10 10 9 9 9 9 10 11 10 9 10 10 3 3 3 4 6 8 9 9 7 4 5 10 5 5 4 6 6 5 8 11 11 11 9 8 7 7 7 6 6 5 5 6 6 6 7 7 8 8 9
9 9 10 11 11 11 11 11 11 11 11 11 10 10 10 11 11 11 11 12 12 10 9 10 10 10 11 12 12 11 9 9 9 8 7 8 8 9 8 8 9 9 9 10 10 10 2 1 1 2 4 8 6 6 7 6 6 5 3 3 5 6 4 4 5 9 11 10 9 8 9 8 8 7 6 6 6 6 5 6 6 7 7 8 8
9 10 11 10 10 11 11 11 11 11 11 11 10 10 10 11 11 10 11 11 11 11 11 11 10 10 11 11 11 11 9 10 9 8 9 8 7 7 8 9 10 10 10 10 10 9 10 3 2 3 4 6 4 7 9 9 8 5 6 5 4 5 5 4 5 5 10 11 11 10 10 9 9 8 8 7 7 6 6 6 6 7 7 8 8
9 10 11 10 10 11 11 11 11 11 11 11 10 11 11 11 11 10 10 11 12 11 11 11 11 10 10 10 11 10 8 8 9 9 6 7 7 8 10 8 10 11 11 12 9 8 10 5 4 4 5 6 7 7 8 5 4 6 7 6 6 4 4 5 5 4 9 12 13 11 10 10 10 10 9 9 7 6 6 6 6 7 7 8 8
9 10 10 11 10 11 11 11 11 10 11 11 10 10 11 10 10 11 11 11 11 11 11 11 10 10 11 11 11 9 7 8 8 6 6 6 8 9 10 8 9 10 6 5 9 8 6 7 3 4 5 6 4 4 4 5 6 7 6 4 4 5 5 5 6 5 7 13 13 13 11 10 11 10 10 9 8 7 6 6 7 7 7 8 9
11 10 10 10 11 12 12 12 11 11 11 10 11 10 10 11 11 11 10 10 10 10 11 11 10 9 9 9 10 8 8 9 7 7 7 8 7 7 7 7 8 8 5 6 7 4 4 6 4 2 3 3 2 3 7 8 6 5 4 6 6 6 6 6 5 5 7 13 14 15 13 12 11 11 11 10 9 8 7 7 7 8 8 9 9
10 10 11 10 11 11 11 11 11 11 11 10 11 11 11 10 10 10 10 9 9 9 9 9 10 9 10 10 9 8 9 10 10 8 7 9 7 8 10 9 8 6 6 5 5 6 5 5 7 4 4 6 5 3 7 6 7 6 5 5 4 5 6 6 7 4 4 5 5 7 11 11 12 12 11 10 10 9 8 8 8 9 9 9 10
10 10 10 11 10 11 11 11 11 11 11 11 10 11 11 9 9 9 9 9 9 8 9 9 9 8 8 8 7 7 8 8 8 8 9 8 8 10 10 9 7 6 6 6 6 7 7 6 4 4 5 5 5 5 3 5 2 4 6 5 6 6 6 6 6 5 4 5 9 12 10 8 8 8 10 11 11 11 9 9 9 10 10 10 10
10 11 11 11 10 10 10 11 11 10 10 10 11 10 9 8 8 9 9 9 9 8 7 8 8 7 7 7 7 8 9 8 7 6 8 8 7 8 8 8 8 9 8 7 6 6 6 6 6 4 4 4 4 3 4 5 5 4 6 7 7 6 6 6 7 5 5 5 6 5 9 11 12 13 12 12 13 12 11 10 11 10 10 11 11
9 9 9 10 10 10 10 10 9 9 10 10 9 8 8 8 8 8 8 9 9 8 7 6 5 5 5 5 5 6 7 9 11 10 11 10 9 9 8 8 8 7 6 6 5 5 4 5 4 3 4 4 5 6 6 8 10 11 6 6 6 3 1 3 5 6 5 4 4 4 6 6 5 6 5 6 7 9 10 11 8 11 12 12 12
8 8 8 8 9 10 10 9 8 8 8 7 10 14 12 9 8 8 7 8 7 7 6 5 4 3 4 4 5 9 11 11 11 12 12 11 10 7 7 8 8 6 5 4 4 4 5 5 5 6 5 5 7 9 9 8 6 1 3 7 8 4 1 3 3 5 5 6 5 6 6 5 6 5 4 6 4 6 5 6 5 5 8 12 13
9 8 8 9 8 7 8 8 9 8 8 7 12 13 13 13 9 7 7 7 6 6 6 6 7 6 4 3 3 6 7 6 7 9 9 9 9 5 5 9 9 10 7 6 5 5 7 5 4 4 5 7 7 7 9 7 4 7 4 4 5 3 5 4 5 1 4 6 5 4 6 3 6 7 5 5 3 4 5 5 7 10 11 12 13
8 6 7 8 7 7 7 7 8 8 7 9 13 13 13 14 11 7 6 6 6 6 6 7 6 6 6 4 3 3 5 5 5 5 4 6 6 6 7 9 9 9 8 9 8 6 7 6 6 7 7 8 7 8 6 5 7 6 4 3 5 6 5 6 4 3 2 5 4 2 5 2 3 4 4 4 3 3 4 5 9 10 11 12 13
5 8 8 7 8 7 7 8 7 7 6 9 12 13 13 13 13 10 6 6 7 6 7 7 7 7 6 6 5 3 3 5 5 5 6 6 7 9 7 7 8 9 8 8 6 8 7 8 8 7 9 8 7 8 9 7 3 5 4 4 5 5 4 4 7 2 2 4 2 2 3 1 3 3 5 2 2 2 4 8 11 10 11 13 13
7 7 6 8 7 7 7 7 7 6 7 8 12 12 12 13 13 10 6 6 6 6 7 7 6 7 8 7 7 5 4 5 5 6 6 6 7 6 7 6 6 7 7 9 9 8 8 7 8 9 8 7 7 4 7 6 8 8 8 8 5 5 6 7 0 0 2 5 4 1 2 1 2 2 5 2 2 3 4 6 11 11 12 12 13
8 8 7 7 6 6 7 6 5 6 7 9 10 11 11 12 12 8 5 5 5 4 4 5 6 7 8 7 7 7 7 7 7 8 7 7 7 6 7 6 6 5 6 7 7 5 5 6 6 7 4 6 4 4 7 8 8 5 7 6 8 6 2 2 1 1 1 4 2 2 4 0 1 1 3 1 1 3 3 6 11 11 11 11 12
3 3 3 4 6 5 5 6 6 6 4 8 10 9 10 10 11 6 6 6 5 5 6 5 5 5 6 7 7 7 7 7 8 11 7 6 5 6 6 5 4 3 4 2 3 4 5 5 5 5 4 6 6 5 7 7 4 4 5 4 4 3 4 2 5 2 3 3 5 3 2 1 2 2 1 0 0 2 2 3 7 11 11 12 12
4 4 4 3 3 5 5 5 6 6 5 6 9 10 11 13 9 6 7 5 5 6 6 6 5 5 5 6 6 6 6 7 10 13 12 10 6 7 6 6 5 4 3 1 3 7 7 6 6 6 7 7 9 9 10 12 9 8 6 4 4 5 4 4 4 2 3 3 4 5 1 4 2 1 3 1 2 3 3 2 2 6 10 12 12
4 4 4 3 3 4 6 7 7 7 5 6 9 10 13 14 11 8 7 7 6 5 5 4 4 5 5 8 7 8 8 8 12 14 15 11 7 8 7 7 7 6 4 2 2 3 6 7 8 8 8 8 9 10 11 13 14 12 9 8 5 6 5 4 6 1 0 2 4 7 2 3 1 0 2 2 1 3 2 1 1 3 8 10 12
6 5 4 5 4 3 4 5 7 8 6 7 10 11 13 14 10 6 7 6 7 5 5 6 4 4 5 6 9 8 8 8 14 14 15 11 6 7 7 7 7 7 5 5 5 5 3 4 2 3 4 5 5 5 6 12 14 10 5 2 5 5 5 4 3 1 2 1 2 8 4 1 1 1 1 2 2 1 1 1 2 2 2 0 1
Wind_Direction
199 205 203 208 211 207 207 208 202 192 171 183 189 175 178 186 181 242 285 290 294 298 302 291 211 195 203 162 172 165 176 130 139 101 90 53 10 359 353 1 7 360 356 347 129 124 116 113 108 98 91 90 90 91 91 87 83 78 70 69 72 70 66 62 59 57 54 48 42 40 36 32 27 28 25 23 20 18 19 18 17 12 14 12 11
201 200 203 211 207 205 209 208 207 198 192 186 176 179 184 181 206 213 254 254 271 268 300 284 6 194 166 193 168 169 154 155 149 123 112 53 27 359 1 8 5 6 356 344 136 120 118 130 118 113 116 107 100 96 90 87 85 83 78 72 69 68 66 61 59 58 55 48 43 38 35 30 29 25 26 22 18 16 18 17 15 10 14 12 10
199 197 208 210 204 201 211 207 209 206 203 190 186 190 175 204 204 212 218 236 257 293 270 280 269 203 144 184 185 154 160 165 169 157 124 95 40 15 354 13 15 359 354 353 127 133 144 143 126 128 125 116 104 101 98 94 90 87 85 79 73 69 64 61 58 58 54 47 45 38 35 27 27 25 27 19 16 14 16 15 13 9 11 11 9
205 204 210 212 208 204 204 203 208 197 202 189 182 188 187 192 200 223 230 244 263 237 194 255 254 211 159 156 196 168 158 152 149 181 148 138 95 20 1 17 22 7 7 352 155 138 142 131 137 120 103 111 109 106 104 102 99 95 90 81 78 74 66 62 60 56 51 45 44 38 30 29 24 26 24 18 12 14 13 12 12 7 9 8 8
207 207 207 216 212 198 195 209 208 198 193 186 174 175 188 196 220 205 197 191 223 211 181 179 262 209 192 151 169 160 145 154 153 214 110 131 124 78 30 25 30 13 16 8 119 159 149 114 108 98 93 99 109 108 108 107 105 101 94 85 80 73 68 63 62 58 50 45 41 36 32 26 26 25 19 17 12 12 11 9 10 3 7 8 5
206 208 207 216 217 212 205 211 203 199 182 193 194 188 206 207 213 193 207 201 215 207 217 231 200 176 200 152 172 171 161 162 166 175 296 50 111 102 66 51 55 35 20 24 47 84 102 107 108 106 107 108 109 111 111 108 105 102 101 95 85 76 69 62 61 59 53 46 40 35 32 25 26 20 17 17 11 11 9 6 8 1 6 5 5
210 210 210 215 219 208 210 217 196 184 191 194 201 198 203 215 196 211 201 212 213 215 219 237 238 226 182 178 180 161 160 148 130 117 168 169 163 125 112 92 75 70 42 52 47 60 109 121 116 113 110 114 116 118 117 115 111 109 109 104 94 81 71 66 63 58 53 48 41 34 28 23 25 18 17 14 11 12 8 1 7 4 1 4 3
209 207 213 213 218 213 216 204 195 181 199 193 195 207 203 216 209 205 216 223 212 232 186 234 230 242 177 192 175 172 173 160 163 162 156 157 181 153 137 109 99 86 85 66 74 72 73 87 103 102 98 96 108 114 117 117 118 114 110 108 103 93 82 73 68 59 54 49 40 33 25 21 21 19 15 13 8 10 7 358 6 4 359 1 2
208 206 211 213 216 217 216 205 192 196 195 196 201 209 200 205 211 201 212 228 199 234 225 218 236 243 179 181 183 172 207 168 168 168 165 183 182 163 137 123 97 111 100 86 86 90 76 77 80 71 61 76 93 101 112 123 125 123 115 110 108 103 96 87 74 62 55 49 39 32 24 18 16 15 14 12 8 6 7 358 4 2 1 359 357
206 205 211 211 208 208 208 203 193 199 204 195 212 199 209 202 217 197 193 198 211 211 229 191 292 296 159 165 165 197 174 197 160 157 184 175 148 167 146 124 124 112 106 100 100 86 93 75 69 62 51 45 88 103 105 113 127 131 127 123 117 113 108 98 84 65 55 49 39 28 23 16 13 11 10 12 6 6 5 358 1 360 359 359 356
205 202 208 213 215 217 211 203 197 201 209 206 210 200 201 196 214 196 191 213 223 201 216 141 195 191 177 166 162 163 149 142 148 165 168 167 185 171 143 147 133 118 115 126 115 110 95 95 89 86 72 39 90 102 107 98 107 131 138 137 132 123 112 102 88 71 55 48 42 30 16 12 11 5 7 9 6 2 3 356 360 0 356 357 358
202 201 206 207 211 209 206 200 202 198 206 222 223 216 209 209 217 203 198 216 223 213 156 146 119 151 154 154 171 167 168 169 169 168 174 182 177 166 173 141 142 128 134 133 129 121 110 109 106 110 109 66 43 63 92 106 110 132 146 152 142 129 118 106 94 77 58 44 41 28 15 9 4 5 4 4 5 0 359 355 356 0 356 357 357
197 195 205 209 209 204 205 204 196 200 209 218 205 203 203 201 197 189 202 203 217 200 198 168 163 190 119 179 189 179 166 174 171 171 180 172 171 176 158 155 152 157 151 140 134 129 131 129 131 132 120 128 78 19 22 19 193 159 154 147 141 132 120 112 100 83 68 53 35 28 17 4 1 3 359 1 3 0 356 357 359 355 354 356 356
196 197 200 203 210 214 216 207 201 212 214 211 203 198 190 195 181 201 212 211 212 200 194 147 196 224 219 221 213 162 155 187 179 196 181 166 175 182 169 172 169 163 149 146 140 143 146 148 144 138 136 145 166 190 197 207 240 163 145 131 132 132 127 122 114 104 81 52 34 33 11 3 359 1 357 2 0 360 356 353 359 355 355 355 354
197 198 200 202 205 207 213 205 204 193 212 218 206 207 193 195 190 195 196 215 221 191 184 199 209 152 109 356 256 247 200 215 224 224 194 173 163 187 183 174 176 169 162 159 156 160 165 162 154 154 162 171 181 193 192 196 223 25 134 144 150 146 142 138 130 118 98 53 47 27 12 2 356 357 360 359 359 357 355 353 355 355 354 353 353
201 197 201 200 199 206 201 203 210 197 198 208 213 216 204 206 200 206 179 206 212 218 201 202 176 147 226 218 218 179 290 241 212 187 185 185 187 182 177 199 179 160 167 176 172 171 173 172 170 171 174 179 182 189 200 193 172 156 66 37 157 157 156 147 140 130 115 83 43 23 14 358 358 355 356 356 358 355 352 355 354 352 352 351 351
201 201 198 203 200 202 202 201 199 205 205 211 207 206 199 194 191 197 199 208 210 211 204 204 212 214 186 107 97 245 229 253 161 212 169 188 215 193 187 179 187 186 185 180 173 180 174 181 182 174 177 177 186 195 199 197 189 188 182 219 178 165 160 153 146 138 124 102 34 22 12 0 0 353 355 353 353 355 349 350 353 351 351 349 348
203 201 202 203 203 201 200 200 203 203 208 213 203 201 204 205 198 197 202 211 211 194 209 211 217 225 246 237 230 256 177 179 154 259 152 230 172 211 198 195 182 184 193 177 182 186 189 185 178 177 178 182 185 189 195 194 201 197 201 188 181 172 163 163 153 138 134 122 59 17 11 3 356 350 350 350 351 349 347 348 349 350 348 347 346
204 203 202 201 204 199 201 204 203 201 196 206 211 210 208 208 186 203 208 191 199 218 214 207 196 240 235 245 265 264 198 154 223 122 283 177 222 200 218 219 210 191 188 191 186 185 195 187 179 180 183 185 185 189 192 197 206 213 211 203 183 175 172 171 156 148 143 128 68 29 13 358 347 342 345 346 350 342 345 347 348 348 346 345 342
205 204 204 201 203 205 205 203 204 205 194 208 208 207 207 213 206 206 199 194 192 212 219 199 189 216 209 224 230 223 220 228 210 211 248 258 220 185 241 203 235 240 214 194 194 197 184 190 185 185 182 187 188 190 191 197 204 212 210 199 185 187 181 172 169 160 157 127 96 48 8 347 338 336 340 343 342 340 343 346 346 345 344 341 341
208 205 203 208 206 211 210 205 208 204 203 206 208 202 204 206 203 207 209 208 205 214 216 213 204 213 183 217 217 220 217 239 269 166 228 229 243 189 196 78 226 230 219 217 213 200 190 189 193 182 180 183 187 189 193 193 195 198 216 201 190 191 190 184 180 173 163 164 147 153 358 335 329 330 337 340 339 340 341 344 342 344 340 337 337
209 211 210 209 209 207 211 212 212 209 208 209 207 211 209 210 206 204 206 209 210 212 215 218 208 216 203 188 197 211 216 212 186 203 277 245 245 211 185 187 211 222 183 210 210 204 203 200 192 198 197 189 184 189 192 189 187 188 205 203 193 198 198 192 187 179 179 175 168 171 203 314 321 326 336 336 336 341 339 338 339 340 335 333 333
204 207 209 209 210 208 209 211 211 212 212 215 214 211 211 212 214 212 212 210 210 210 218 224 218 218 214 207 202 198 193 201 202 202 209 215 231 247 231 207 220 235 210 202 193 197 199 191 202 205 207 201 195 194 190 186 181 189 196 195 196 201 204 198 193 189 183 188 177 181 201 291 310 322 329 330 333 334 336 331 333 337 333 331 332
209 209 209 206 209 208 210 213 213 213 216 212 215 215 215 214 213 212 214 214 215 211 216 218 217 219 218 213 214 214 212 210 204 198 203 223 224 235 234 208 273 241 55 141 156 208 203 199 211 208 205 198 198 197 189 183 190 188 195 195 200 202 201 202 200 195 192 193 186 177 208 274 293 306 312 318 320 323 326 325 329 333 331 330 330
213 211 212 203 203 206 206 210 214 213 216 214 219 216 215 214 215 216 216 211 209 213 215 216 212 215 214 214 215 216 216 204 213 216 216 225 225 235 239 157 217 217 135 157 199 207 208 216 207 211 200 202 192 192 193 191 185 190 196 195 203 202 203 207 207 199 194 191 192 183 203 254 277 284 290 295 302 310 319 326 330 331 331 329 329
205 212 205 198 204 208 204 208 211 211 212 215 216 214 213 212 215 217 216 216 213 215 221 220 218 221 217 219 218 224 228 220 221 214 211 206 215 221 229 198 221 229 131 204 169 179 216 219 212 203 196 204 198 190 189 186 184 186 188 191 199 203 204 206 211 205 199 198 192 197 204 237 261 265 271 282 295 308 322 326 331 331 330 330 329
212 213 190 198 203 204 206 209 210 210 211 213 213 213 211 213 217 220 220 217 214 215 221 220 221 219 218 218 218 220 224 223 217 220 213 209 216 221 214 223 226 202 221 201 203 222 224 209 195 191 197 197 199 190 182 183 187 183 183 190 196 201 205 208 209 208 208 199 195 199 208 235 249 255 262 283 299 319 324 324 332 331 330 330 329
209 196 198 194 200 200 203 207 200 206 210 211 211 210 210 211 218 218 222 208 212 215 221 218 223 222 222 222 222 225 218 220 217 220 217 219 225 224 210 216 231 243 196 217 202 247 202 221 182 203 187 197 195 184 167 177 189 186 183 189 191 194 206 206 208 212 207 200 200 200 212 236 244 250 265 284 302 317 318 322 327 329 329 329 327
205 197 195 199 198 198 201 204 207 201 210 212 210 209 206 210 216 216 219 207 209 217 218 218 220 222 224 222 224 225 223 219 220 221 220 220 225 224 212 214 214 240 223 215 216 234 214 203 211 205 192 187 183 181 182 196 184 182 185 189 190 196 200 202 208 211 210 204 202 207 216 231 242 251 270 288 296 304 308 316 325 325 327 326 326
200 197 193 195 196 193 199 199 200 202 207 209 209 210 206 212 216 217 216 208 211 214 216 217 219 218 221 222 222 225 222 217 221 220 218 217 216 210 207 213 216 225 235 241 242 207 205 193 213 192 184 189 176 178 191 187 179 185 183 188 193 196 195 202 207 210 211 211 210 206 212 230 240 244 260 273 284 295 305 316 317 319 322 323 326
194 190 191 193 192 194 198 199 197 200 203 208 207 209 208 213 215 217 214 213 213 216 216 215 220 218 220 222 219 223 220 220 219 220 217 214 218 212 213 215 215 221 234 234 252 236 177 195 218 194 162 175 165 167 178 176 182 183 184 190 199 188 196 203 211 213 213 215 208 208 217 230 233 238 247 261 276 285 295 303 305 312 317 320 325
198 190 191 193 191 193 197 199 200 200 202 207 206 208 208 213 213 213 214 213 217 218 218 213 216 216 219 222 222 222 218 213 214 215 211 211 210 208 209 210 217 221 223 230 229 250 157 229 194 147 152 157 163 173 175 158 188 185 179 182 181 185 200 203 214 220 220 219 210 208 220 226 225 230 241 255 266 273 280 291 302 310 312 316 322
193 190 196 196 194 195 196 199 201 201 203 207 206 208 210 213 213 212 212 212 215 218 216 216 214 214 218 221 224 224 216 214 216 213 209 208 200 206 208 205 218 219 214 218 228 245 214 131 117 137 143 136 167 176 157 166 174 180 170 187 186 198 195 208 213 223 225 224 216 215 221 221 220 223 231 242 252 261 274 284 295 301 301 305 313
192 196 199 197 195 195 198 202 206 205 204 205 204 208 213 215 216 214 213 211 214 216 212 217 214 214 216 220 224 223 211 211 211 208 207 200 193 201 202 203 214 220 213 210 225 225 239 115 145 92 129 171 146 180 183 172 182 166 186 187 204 199 201 205 217 220 226 225 222 223 223 222 221 221 226 231 240 249 259 273 282 288 292 299 304
197 197 200 197 196 198 200 204 206 208 208 209 207 210 215 215 216 213 211 211 213 214 215 216 215 213 216 218 222 219 203 206 210 213 196 191 188 196 208 205 216 223 218 217 211 219 231 219 118 146 172 183 194 176 187 175 148 171 184 195 197 196 212 211 217 221 223 227 226 226 224 223 223 226 227 232 237 244 254 264 273 280 287 292 296
198 202 201 199 199 200 204 206 208 207 209 212 214 213 215 214 216 216 215 212 213 215 216 217 217 213 212 214 219 211 191 206 212 202 193 189 190 205 211 211 217 227 219 208 220 222 225 224 166 178 178 167 191 125 140 149 172 187 203 191 197 210 207 211 221 224 225 230 232 230 226 227 228 228 231 235 238 243 253 264 268 272 277 281 284
203 200 204 203 202 203 207 207 207 210 212 212 215 216 216 217 218 217 215 213 213 215 216 217 216 209 209 212 217 199 187 201 206 202 192 194 200 199 213 215 214 223 198 193 216 213 172 194 139 180 140 165 97 134 164 167 175 189 194 209 203 208 214 217 221 225 230 236 238 235 231 231 231 231 235 237 238 243 250 255 261 264 265 268 274
206 205 203 205 205 206 207 208 208 210 211 213 215 217 218 216 214 214 213 212 212 213 214 216 216 209 207 212 213 191 190 199 207 200 183 194 188 197 210 214 213 201 194 182 184 192 192 189 148 142 179 171 168 170 182 180 169 180 200 215 217 217 216 224 224 210 210 221 225 232 232 233 232 236 239 239 238 241 244 249 252 255 258 262 267
207 208 207 205 207 206 208 209 211 211 212 212 213 218 219 211 208 208 211 212 212 211 213 215 215 211 211 213 201 185 192 202 200 192 192 194 192 206 207 208 193 179 187 188 181 186 194 180 155 161 155 186 170 164 160 180 180 199 197 198 231 211 216 219 231 202 203 228 236 235 236 236 235 238 239 239 240 239 238 243 247 249 257 259 262
211 209 205 206 207 207 210 210 211 208 211 215 216 214 206 200 202 209 208 207 208 211 214 214 208 203 201 198 195 191 195 198 195 189 177 192 192 207 203 183 178 178 186 179 178 182 193 199 183 170 176 147 158 75 109 151 189 234 221 207 221 203 208 211 223 217 202 213 229 226 234 239 241 242 242 241 238 236 238 242 241 245 249 254 256
210 211 207 204 206 209 213 212 211 209 210 210 204 201 205 206 205 205 206 207 205 207 212 213 206 201 198 189 180 182 190 190 190 185 193 190 184 206 207 189 170 177 177 178 179 176 187 192 172 139 158 168 174 153 161 182 195 206 178 181 235 235 179 208 227 219 213 213 227 230 229 215 234 233 226 234 226 228 239 234 239 240 246 250 251
206 206 208 208 208 207 206 209 208 204 207 206 202 201 200 197 195 202 202 202 200 202 199 195 193 185 181 176 182 179 184 187 190 196 200 199 197 196 176 171 174 174 179 170 175 185 182 194 199 170 178 194 182 193 190 206 202 98 146 178 214 207 160 243 253 213 197 206 225 237 235 198 224 243 223 236 219 211 230 219 223 222 241 248 251
203 204 201 205 209 205 202 201 205 209 207 203 202 202 202 198 192 194 194 196 195 189 184 181 190 183 175 168 166 169 170 181 195 204 204 198 200 203 161 183 179 173 167 174 189 184 192 206 195 188 196 195 199 191 206 192 187 198 195 182 201 172 207 206 245 127 182 185 210 246 256 176 196 235 224 229 222 224 225 229 223 237 244 249 252
205 192 199 205 201 202 204 204 204 204 207 204 200 202 201 199 192 188 188 183 176 179 178 183 182 170 166 156 155 161 166 175 169 181 184 177 178 180 165 179 187 191 184 177 178 186 201 201 194 203 190 208 192 185 202 189 200 189 194 181 191 194 189 210 231 243 112 180 199 226 266 138 214 244 260 237 228 231 231 240 236 243 249 251 253
180 193 205 197 206 202 199 201 206 203 207 204 200 199 198 194 189 179 176 167 167 180 181 179 169 162 154 154 156 155 152 145 139 154 157 160 166 174 163 168 182 191 196 209 212 202 182 200 205 204 200 193 194 205 195 188 129 176 164 195 201 204 210 214 227 218 188 189 170 232 271 142 169 229 257 251 229 244 244 239 238 241 247 252 255
187 194 193 197 197 196 196 196 199 198 202 201 196 193 189 182 176 170 168 164 168 170 174 165 159 158 159 160 160 160 143 131 152 170 170 162 157 152 160 165 177 195 208 213 217 204 189 203 200 217 200 186 208 176 153 148 162 184 177 207 186 199 201 222 77 190 120 173 192 162 265 210 168 232 257 267 219 239 230 230 233 237 244 250 255
185 189 185 188 194 190 187 186 187 189 197 185 183 179 179 175 168 153 136 134 135 143 145 152 159 161 162 162 158 159 157 167 183 179 168 167 163 167 171 185 173 163 183 195 192 179 175 195 212 225 172 184 184 152 160 174 190 186 189 195 188 192 161 64 78 150 168 194 197 181 257 100 148 231 246 239 225 241 224 237 234 237 244 248 253
191 171 194 184 181 187 184 172 171 194 198 182 175 174 167 160 144 127 133 137 137 137 144 156 161 156 154 152 155 161 171 171 183 175 167 153 155 162 170 167 150 164 190 196 186 178 181 183 193 194 186 177 176 168 165 174 153 121 101 77 87 109 151 196 228 164 226 181 189 198 247 256 148 227 268 82 257 261 228 223 237 243 245 244 248
185 194 192 180 178 181 177 183 179 184 187 187 172 164 157 149 138 133 133 129 137 149 159 160 153 150 155 162 158 163 163 172 175 169 162 158 155 166 170 172 172 168 184 172 207 183 177 172 160 164 167 172 176 174 168 164 158 141 126 133 184 165 166 216 234 195 237 148 196 206 226 277 185 197 280 249 215 249 246 227 224 253 253 246 242
199 196 176 184 192 188 181 186 186 172 188 186 172 162 157 157 155 153 154 146 150 150 140 142 146 150 157 163 169 163 167 172 174 170 168 161 167 171 170 163 161 177 199 175 115 145 150 145 149 153 160 161 165 172 173 166 158 157 154 194 178 156 202 206 243 202 129 196 198 167 190 243 40 164 278 257 233 233 260 287 248 252 244 235 234
191 179 181 181 182 191 199 192 188 179 174 182 175 167 165 160 153 149 147 143 147 159 156 151 127 125 140 170 173 173 172 173 173 173 171 168 166 173 170 165 167 192 197 161 160 142 128 114 107 118 129 148 155 158 174 170 169 183 198 180 129 171 202 214 234 346 289 217 164 168 194 254 172 179 176 311 284 131 114 312 276 240 224 273 236